Other Public Products
Issued by NWS Grand Forks, ND

Home | Current Version | Previous Version | Graphics & Text | Print | Product List | Glossary On
Versions: 1 2 3 4 5 6 7 8 9 10 11 12 13 14 15 16 17 18 19 20 21 22 23 24 25 26 27 28 29 30 31 32 33 34 35 36 37 38 39 40 41 42 43 44 45 46 47 48 49 50
000
FPUS83 KFGF 281831
OPUFGF
PRAIRIE TO PINES WEATHER ROUNDUP
NATIONAL WEATHER SERVICE EASTERN NORTH DAKOTA/GRAND FORKS ND
1200 PM CST SUN DEC 28 2014

 **SATELLITE DATA USED TO AUGMENT SKY COVER AT AUTOMATED STATIONS**
 *****  WEATHER ACROSS EASTERN NORTH DAKOTA  *****

CITY           SKY/WX    TMP DP  RH WIND       PRES   REMARKS
GRAND FORKS    FAIR      -3 -10  72 N6        30.34F WCI -15
6HR MIN TEMP: -10; 6HR MAX TEMP:  -3;

GRAND FORKS AF FAIR      -2  -9  72 N8        30.34S WCI -17
GRAND CITY NWS   N/A      0 N/A N/A N10         N/A  WCI -17
BUXTON           N/A     -2  -9  71 N8          N/A  WCI -16
DEVILS LAKE    FAIR      -2 N/A N/A N5        30.27R WCI -12
6HR MIN TEMP:  -6; 6HR MAX TEMP:   0;

FARGO          FAIR       4  -4  69 N12       30.29F WCI -12
6HR MIN TEMP:  -1; 6HR MAX TEMP:   5;

WAHPETON ARPT  FAIR       9   0  66 N12       30.26S WCI  -6
$$

 *****  WEATHER ACROSS CENTRAL AND WESTERN NORTH DAKOTA  *****

CITY           SKY/WX    TMP DP  RH WIND       PRES   REMARKS
JAMESTOWN      CLOUDY     3  -4  72 NE10      30.22F WCI -12
6HR MIN TEMP:   2; 6HR MAX TEMP:   7;

BISMARCK       FLURRIES  10   6  84 E12       30.19S WCI  -5
6HR MIN TEMP:   9; 6HR MAX TEMP:  14; 6HR PCP: TRACE;

MINOT          CLOUDY    -1  -6  79 N7        30.24R WCI -14
6HR MIN TEMP:  -6; 6HR MAX TEMP:  -1;

MINOT AFB      CLOUDY     0  -2  92 NE6       30.25S WCI -12
6HR MIN TEMP:  -8; 6HR MAX TEMP:   0; 6HR PCP: TRACE;

GARRISON         N/A      7   3  84 E10       30.18S WCI  -8
6HR MIN TEMP:   5; 6HR MAX TEMP:   9;

WILLISTON      CLOUDY    10   2  69 E10       30.18R WCI  -4
6HR MIN TEMP:  10; 6HR MAX TEMP:  13;

DICKINSON      LGT SNOW  18  13  80 E13       30.03S WCI   5
6HR MIN TEMP:  17; 6HR MAX TEMP:  19; 6HR PCP: TRACE;

HETTINGER      CLOUDY    19  15  84 E9        30.03R WCI   8
6HR MIN TEMP:   1; 6HR MAX TEMP:  19;

$$

 *****  OTHER OBSERVATIONS NORTHEAST NORTH DAKOTA  *****

CITY           SKY/WX    TMP DP  RH WIND       PRES   REMARKS
WALHALLA       NOT AVBL
LANGDON        NOT AVBL
CAVALIER       NOT AVBL
GRAFTON        NOT AVBL
CANDO          NOT AVBL
FORT TOTTEN      N/A      0  -8  70 N2        29.95
ROLLA          NOT AVBL
RUGBY          NOT AVBL
 ***** THE ABOVE OBSERVATIONS ARE NON NWS ARE NOT QUALITY
        CONTROLLED AND MAY MIS-REPORT RAIN FOR SNOW...
$$

 *****  OTHER OBSERVATIONS SOUTHEAST NORTH DAKOTA *****

CITY           SKY/WX    TMP DP  RH WIND       PRES   REMARKS
COOPERSTOWN    NOT AVBL
VALLEY CITY    NOT AVBL
OAKES          NOT AVBL
GWINNER        NOT AVBL
BUFFALO        NOT AVBL
WYNDMERE         N/A      3  -4  72 N9          N/A  WCI -11
 ***** THE ABOVE OBSERVATIONS ARE NON NWS ARE NOT QUALITY
       CONTROLLED AND MAY MIS-REPORT RAIN FOR SNOW...
$$

  *****  WEATHER ACROSS NORTHERN MINNESOTA  *****

CITY           SKY/WX    TMP DP  RH WIND       PRES   REMARKS
FLAG ISLAND    FAIR      -8 -15  71 NW8       30.25S WCI -23
WARROAD        FAIR      -4 -11  71 SW5       30.26S WCI -15
ROSEAU         FAIR      -2  -9  71 W6        30.28S WCI -14
HALLOCK        FAIR      -6 -11  77 NW7       30.34R WCI -20
THF RVR FALLS  FAIR      -2  -9  71 NW8       30.28S WCI -17
6HR MIN TEMP:  -9; 6HR MAX TEMP:  -2;

HALSTAD          N/A      1  -6  73 N12         N/A  WCI -16
FOSSTON        FAIR       3  -6  66 CALM      30.25S
BAUDETTE       FAIR      -5 -13  68 NW7       30.24S WCI -19
6HR MIN TEMP:  -8; 6HR MAX TEMP:  -4;

WASKISH        FAIR       1  -6  71 CALM      30.23S
CROOKSTON      FAIR      -6  -9  84 N12       30.34S WCI -24
$$
  *****  WEATHER ACROSS CENTRAL AND WEST MINNESOTA  *****

CITY           SKY/WX    TMP DP  RH WIND       PRES   REMARKS
BEMIDJI        FAIR       3  -3  76 NW5       30.21R WCI  -7
PARK RAPIDS    FAIR       7  -4  60 VRB3      30.19R
6HR MIN TEMP:   2; 6HR MAX TEMP:  14;

WADENA         FAIR      10   0  61 N8        30.18S WCI  -1
DETROIT LAKES  FAIR       9   1  72 N3        30.21F
MOORHEAD       FAIR       5   0  78 N12       30.28F WCI -11
FERGUS FALLS   FAIR      12   0  57 N8        30.25S WCI   1
ELBOW LAKE     CLOUDY    13   6  73 N6        30.19S WCI   4
6HR MIN TEMP:  13; 6HR MAX TEMP:  19;

MORRIS MN      FAIR      19  14  79 NW10      30.19R WCI   8
STAPLES        FAIR      12   0  57 N7        30.18S WCI   2
WHEATON        FAIR       9   3  78 NW13      30.25S WCI  -7
$$
  *****  WEATHER ELSEWHERE ACROSS MINNESOTA  *****

CITY           SKY/WX    TMP DP  RH WIND       PRES   REMARKS
DULUTH         FAIR       8  -4  58 NW9       30.13S WCI  -5
6HR MIN TEMP:   7; 6HR MAX TEMP:  16; 6HR PCP: TRACE;

INTRNTL FALLS  FAIR       0  -8  69 VRB6      30.21S WCI -12
6HR MIN TEMP:  -7; 6HR MAX TEMP:   0;

ELY            FAIR       3  -8  60 NW6       30.14R WCI  -8
CLOQUET        FAIR       9  -4  56 N10G17    30.16S WCI  -6
BRAINERD       FAIR      13   1  59 N9        30.19R WCI   1
6HR MIN TEMP:  11; 6HR MAX TEMP:  19;

HIBBING        FAIR       4  -6  63 NW8       30.17S WCI  -9
6HR MIN TEMP:  -1; 6HR MAX TEMP:   8; 6HR PCP: TRACE;

ALEXANDRIA     CLOUDY    18   9  68 N10       30.17S WCI   6
6HR MIN TEMP:  17; 6HR MAX TEMP:  20;

SAINT CLOUD    CLOUDY    23   8  52 N12       30.17S WCI  12
6HR MIN TEMP:  15; 6HR MAX TEMP:  24;

MINNEAPOLIS    PTSUNNY   18  12  77 CALM      30.17F
6HR MIN TEMP:   7; 6HR MAX TEMP:  18;

$$

  *****  WEATHER ACROSS SOUTH DAKOTA  *****

CITY           SKY/WX    TMP DP  RH WIND       PRES   REMARKS
SIOUX FALLS    FAIR      13   9  84 N3        30.13F
6HR MIN TEMP:  -5; 6HR MAX TEMP:  13;

BROOKINGS      NOT AVBL
WATERTOWN      CLOUDY    15  12  88 NE10      30.13F WCI   2
6HR MIN TEMP:   1; 6HR MAX TEMP:  17;

HURON          SUNNY     16  10  77 NE6       30.16F WCI   7
6HR MIN TEMP:  -3; 6HR MAX TEMP:  16;

SISSETON         N/A      8   2  76 N12       30.23R WCI  -7
ABERDEEN       CLOUDY    13   8  81 NE12      30.21R WCI  -1
6HR MIN TEMP:  12; 6HR MAX TEMP:  17; 6HR PCP: TRACE;

MITCHELL       SUNNY     17  12  80 CALM      30.16S
PIERRE         CLOUDY    16  12  84 E10       30.09S WCI   4
6HR MIN TEMP:   0; 6HR MAX TEMP:  16;

MOBRIDGE       CLOUDY    20  15  81 E14       30.10S WCI   7
RAPID CITY     CLOUDY    19  11  70 CALM      29.95F
6HR MIN TEMP:   7; 6HR MAX TEMP:  20;

$$

  *****  SOME WEATHER IN NEARBY STATES *****

CITY           SKY/WX    TMP DP  RH WIND       PRES   REMARKS
GLASGOW MT     CLOUDY    17  11  77 NE16      30.10R WCI   2
6HR MIN TEMP:  17; 6HR MAX TEMP:  19;

GREAT FALLS MT LGT SNOW  12  10  92 N21       30.05R VSB 3/4 WCI  -7
6HR MIN TEMP:  12; 6HR MAX TEMP:  24; 6HR PCP:  0.08;

CHEYENNE WY    MOSUNNY   29  10  45 W9        29.84F WCI  20
6HR MIN TEMP:  16; 6HR MAX TEMP:  29;

SCOTTSBLUFF NE CLOUDY    18  13  80 E8        29.92F WCI   8
6HR MIN TEMP:  -2; 6HR MAX TEMP:  20;

OMAHA NE       FAIR      28  19  69 CALM      30.16F
6HR MIN TEMP:  15; 6HR MAX TEMP:  28;

DES MOINES IA  FAIR      28  20  71 S6        30.16F WCI  22
6HR MIN TEMP:  16; 6HR MAX TEMP:  28;

DAVENPORT IA   FAIR      29  17  61 SW7       30.19F WCI  22
6HR MIN TEMP:  16; 6HR MAX TEMP:  29;

CHICAGO IL     FAIR      31  15  52 W9        30.15F WCI  23
6HR MIN TEMP:  22; 6HR MAX TEMP:  31;

EAU CLAIRE WI  CLOUDY    16  10  77 CALM      30.15F
6HR MIN TEMP:   7; 6HR MAX TEMP:  16;

LA CROSSE WI   FAIR      23  14  68 VRB3      30.17F
6HR MIN TEMP:  13; 6HR MAX TEMP:  23;

$$

  *****  SOME NATIONAL WEATHER *****

CITY           SKY/WX    TMP DP  RH WIND       PRES   REMARKS
LA GUARDIA NY  CLOUDY    51  41  68 W10       29.89S



USA.gov is the U.S. government's official web portal to all federal, state and local government web resources and services.